Location: Puerto Pe�asco
(31.3170°N, 113.5330°W)
Time: 01:31:10
(UTC-07:00)

Daily predictions for brighter satellites

Satellite Brightness Start Highest point End
(mag) Time Altitude Azimuth Time Altitude Azimuth Time Altitude Azimuth
Atlas Centaur 2 4.0 03:22:30 27° E 03:22:30 27° E 03:24:51 10° E
Cosmos 2263 Rocket 3.9 03:21:57 29° NE 03:21:57 29° NE 03:24:52 10° NNE
CZ-3 R/B 3.6 03:49:52 41° SW 03:59:00 62° S 04:07:31 10° E
Kakehashi 4.3 04:02:39 46° S 04:02:39 46° S 04:11:12 10° SE
Cosmos 1570 Rocket 4.5 04:17:05 10° N 04:22:20 61° ENE 04:27:36 10° SSE
Okean O Rocket 2.0 04:20:15 10° NNE 04:24:33 61° ESE 04:25:09 54° SE
Cosmos 2208 Rocket 4.3 04:24:37 10° N 04:29:51 64° ENE 04:34:59 10° SSE
Cosmos 1975 2.9 04:30:56 10° N 04:35:02 79° E 04:36:04 49° SSE
Delta 2 Rocket 3.9 04:36:22 61° WSW 04:37:22 90° SSE 04:43:09 10° ENE
ADEOS II 2.4 04:34:56 10° N 04:39:38 46° WNW 04:39:38 46° WNW
Tiangong 1 3.6 04:40:26 14° NNE 04:40:26 14° NNE 04:41:41 10° NE
IRS-1C Rocket 4.4 04:35:03 10° NNE 04:40:19 66° ESE 04:45:33 10° S
CZ-3A R/B 2.8 04:41:18 37° S 04:41:45 39° SSE 04:49:08 10° E
ATLAS 3B R/B 2.8 04:38:53 31° SW 04:42:53 80° WNW 04:50:09 10° NNE
CZ-4B DEB 4.1 04:38:36 10° NNE 04:44:05 89° ESE 04:49:11 12° SSW
Cosmos 2266 Rocket 4.1 04:37:52 10° NNW 04:44:05 55° W 04:50:17 10° SSW
Meteor 1-31 Rocket 3.8 04:42:28 10° NNE 04:46:11 45° E 04:49:51 10° S
Cosmos 1666 4.0 04:42:48 10° N 04:46:22 40° E 04:49:56 10° SSE
ATLAS CENTAUR R/B 3.8 04:49:01 10° SSE 04:51:56 19° ESE 04:54:44 10° ENE
Cosmos 1844 Rocket 3.1 04:49:08 10° S 04:54:42 64° ESE 05:00:19 10° NNE
Cosmos 1743 2.7 04:53:04 10° N 04:57:00 80° E 05:00:52 10° S
ASTRO E2 3.2 04:58:52 37° SSW 04:59:57 48° SSE 05:03:51 10° E
Cosmos 1943 3.5 04:55:27 10° NW 05:00:45 41° WSW 05:06:00 10° S
PSLV R/B 4.2 04:58:59 10° N 05:02:27 32° WNW 05:02:27 32° WNW
Cosmos 2263 Rocket 3.6 05:03:42 20° WNW 05:03:42 20° WNW 05:07:38 10° NNW
CZ-4B R/B 4.0 05:00:18 10° NNW 05:02:51 26° NW 05:02:51 26° NW
Cosmos 1244 Rocket 4.5 05:01:31 10° N 05:07:53 82° W 05:14:14 10° S
OAO 1 Rocket 4.4 05:05:16 31° WSW 05:07:56 88° NNW 05:13:19 10° ENE
Atlas Centaur 2 2.0 05:05:08 29° W 05:08:22 82° S 05:13:16 10° E
Cosmos 1544 Rocket 3.6 05:04:49 10° NNW 05:09:03 54° W 05:13:17 10° S
PAYLOAD B 4.5 05:07:21 10° N 05:12:35 45° WNW 05:17:36 11° SW
Meteor PRIRODA 3.6 05:09:30 10° N 05:13:07 56° WNW 05:16:17 13° SSW
Cosmos 724 4.3 05:09:08 10° SSW 05:15:15 77° WNW 05:21:19 10° NNE
Meteor 1-4 Rocket 2.3 05:13:15 10° NNW 05:16:43 74° W 05:20:09 10° S
Cosmos 1455 Rocket 3.2 05:12:35 10° NNW 05:16:45 49° W 05:20:54 10° SSW
SJ-6F 4.3 05:16:43 10° N 05:20:51 79° WNW 05:24:57 10° SSW
CZ-4B R/B 3.9 05:18:13 10° N 05:22:07 59° WNW 05:26:12 10° SSW
Skynet4D Del rocket 3.9 05:21:58 19° WSW 05:26:01 55° S 05:31:18 10° ESE
Cosmos 1486 Rocket 4.0 05:21:05 10° SSW 05:26:17 65° WNW 05:31:30 10° N
Cosmos 468 Rocket 4.0 05:21:57 10° NNW 05:27:12 64° WSW 05:32:25 10° S
Okean-O 2.9 05:23:40 10° NNE 05:28:06 74° E 05:32:30 10° S
MTI 4.0 05:26:03 10° SSE 05:29:16 72° ENE 05:32:30 10° N
NOSS 3-2 (A) 3.3 05:24:23 10° SSW 05:30:13 83° WNW 05:36:35 10° NNE
Cosmos 1536 Rocket 4.3 05:26:53 10° SW 05:30:43 31° W 05:34:35 10° NNW
Feng Yun 1-1 Rocket 4.2 05:26:36 10° NNE 05:32:01 86° ESE 05:37:29 10° SSW
BREEZE-M DEB 4.0 05:32:08 17° SW 05:34:04 87° NW 05:37:43 10° NE
GPS 2-05 Rocket1 3.3 05:36:18 18° W 05:38:09 36° SSW 05:41:00 10° SE
Cosmos 1844 3.7 05:33:40 10° SSW 05:39:11 67° WNW 05:44:49 10° NNE
BREEZE-M DEB (TANK) 4.3 05:37:21 10° S 05:39:46 28° ESE 05:44:32 10° ENE
IDEFIX/ARIANE 42P 3.9 05:35:40 10° NNE 05:40:42 45° E 05:45:43 10° S
ASC 2 Rocket 4.2 05:40:33 12° WSW 05:43:39 26° S 05:47:08 10° SE
Intelsat 5-2 Rocket 4.4 05:42:25 10° SW 05:44:58 26° S 05:49:56 10° ESE
CZ-4B R/B 4.2 05:41:26 10° NNW 05:45:38 24° WNW 05:49:51 10° WSW
Cosmos 1763 Rocket 3.5 05:40:46 10° NNW 05:46:05 79° WSW 05:51:23 10° S
Meteor 2-4 Rocket 4.1 05:41:35 10° SSW 05:46:42 39° WNW 05:52:00 10° N
Cosmos 1271 Rocket 3.4 05:44:02 10° N 05:48:00 61° E 05:51:57 10° SSE
BREEZE-M DEB (TANK) 4.4 05:42:51 10° WNW 05:49:17 21° WSW 05:52:18 10° SSW
Okean 1-7 Rocket 3.6 05:49:14 10° SSW 05:53:41 68° W 05:58:14 10° N
Cosmos 2315 Rocket 4.4 05:48:57 10° S 05:55:07 70° E 06:01:22 10° N
Cosmos 1745 Rocket 4.0 05:49:20 10° NNW 05:55:38 65° W 06:01:50 10° S
GOES 2 Rocket 4.1 05:54:03 10° W 05:57:48 32° SSW 06:01:56 10° SE
Cosmos 371 Rocket 4.4 05:55:11 10° NW 05:59:00 23° W 06:02:49 10° SSW
Cosmos 1025 Rocket 3.3 05:56:46 10° SSW 06:00:51 45° W 06:04:58 10° N
CZ-2C R/B 4.5 05:56:56 10° SSW 06:01:06 32° W 06:05:21 10° NW
NOAA 6 4.2 05:56:16 10° N 06:01:19 53° WNW 06:06:20 10° SSW
